Terug naar catalogus

STARLINK-37325

ActiefCommunicatieSSO
NORAD 68748·PAYLOAD·🇺🇸 United States

Gelanceerd Apr 15, 2026 vanaf Vandenberg Space Force Base

Loading…

Volgende Passages (komende 24 uur)

TLE

VersSource: CelesTrak SupGP

Epoch: Sep 14, 2026, 21:45 UTC

1 68748C 26082W   26257.90673611  .00040462  00000+0  12566-2 0  2570
2 68748  97.2849 120.1017 0002065  93.3865 355.2443 15.33403705    11

Volg STARLINK-37325 in realtime met AllMySat

Download on the App Store